This is the latest recevied weather packets stored in our database for station/object KA1JKB. If no packets are shown the sender has not sent any weather packets the latest 10 day(s).
| Time | Temp. | Humidity | Pressure | Rain* | Wind** | Luminosity | Snow |
|---|---|---|---|---|---|---|---|
| 1787686299 | 26.11° C | 63% | 1016.9 hPa | 0 mm | - | 675 W/m² | - |
| 1787685995 | 25° C | 62% | 1016.8 hPa | 0 mm | - | 598 W/m² | - |
| 1787685691 | 25° C | 65% | 1016.6 hPa | 0 mm | - | 581 W/m² | - |
| 1787685390 | 25° C | 65% | 1016.7 hPa | 0 mm | - | 566 W/m² | - |
| 1787685085 | 25° C | 65% | 1016.9 hPa | 0 mm | - | 675 W/m² | - |
| 1787684781 | 25° C | 62% | 1016.9 hPa | 0 mm | - | 629 W/m² | - |
| 1787684480 | 25° C | 63% | 1017.1 hPa | 0 mm | - | 613 W/m² | - |
| 1787684175 | 25.56° C | 62% | 1017.3 hPa | 0 mm | - | 643 W/m² | - |
| 1787683874 | 25.56° C | 61% | 1017 hPa | 0 mm | - | 677 W/m² | - |
| 1787683569 | 25° C | 62% | 1017.2 hPa | 0 mm | - | 718 W/m² | - |
| 1787683265 | 25.56° C | 66% | 1017.4 hPa | 0 mm | - | 649 W/m² | - |
| 1787682962 | 25° C | 62% | 1017.2 hPa | 0 mm | - | 602 W/m² | - |
| 1787682658 | 25° C | 63% | 1017.4 hPa | 0 mm | - | 670 W/m² | - |
| 1787682353 | 25.56° C | 66% | 1017.2 hPa | 0 mm | - | 720 W/m² | - |
| 1787682049 | 25° C | 64% | 1017.3 hPa | 0 mm | - | 724 W/m² | - |
| 1787681744 | 24.44° C | 63% | 1017.3 hPa | 0 mm | - | 672 W/m² | - |
| 1787681439 | 24.44° C | 65% | 1017.2 hPa | 0 mm | - | 683 W/m² | - |
| 1787681138 | 24.44° C | 67% | 1017.5 hPa | 0 mm | - | 682 W/m² | - |
| 1787680834 | 25° C | 61% | 1017.5 hPa | 0 mm | - | 742 W/m² | - |
| 1787680529 | 24.44° C | 64% | 1017.5 hPa | 0 mm | - | 666 W/m² | - |
| 1787680227 | 24.44° C | 67% | 1017.7 hPa | 0 mm | - | 717 W/m² | - |
| 1787679926 | 24.44° C | 63% | 1017.6 hPa | 0 mm | - | 733 W/m² | - |
| 1787679621 | 24.44° C | 65% | 1017.7 hPa | 0 mm | - | 548 W/m² | - |
| 1787679317 | 23.33° C | 66% | 1017.7 hPa | 0 mm | - | 767 W/m² | - |
| 1787679013 | 24.44° C | 65% | 1017.9 hPa | 0 mm | - | 533 W/m² | - |
* Rain latest hour (hover to see other rain measurements)
** Current wind speed in m/s (hover to see current wind gust speed)